Back to catalog

STARLINK-2557

AliveCommunicationsVLEO
NORAD 48299·PAYLOAD·🇺🇸 United States

Launched Apr 29, 2021 from Cape Canaveral Space Force Station

Loading…

Next Passes (next 24 hours)

TLE

FreshSource: CelesTrak SupGP

Epoch: Sep 14, 2026, 20:36 UTC

1 48299C 21036Z   26257.85881944  .00032991  00000+0  10608-2 0  2570
2 48299  53.1573 274.9956 0001309  87.7530  90.7793 15.31687510    16

Track STARLINK-2557 in real time with AllMySat

Download on the App Store